Lakeville, MN

8:13 PM CDT on July 20, 2017 (GMT -0500)
Airlake

Weather History for KLVN - July, 2012

Change the Weather History Date:

Monday, July 2, 2012

  Actual Average Record
Temperature  
Mean Temperature 81 °F -  
Max Temperature 93 °F 82 °F 96 °F (1948)
Min Temperature 69 °F 60 °F 44 °F (2001)
Cooling Degree Days 16    
Growing Degree Days 31 (Base 50)    
Moisture  
Dew Point 72 °F    
Average Humidity 72    
Maximum Humidity 100    
Minimum Humidity 52    
Precipitation  
Precipitation 0.00 in - - ()
Sea Level Pressure  
Sea Level Pressure 29.84 in    
Wind  
Wind Speed 4 mph (South)    
Max Wind Speed 13 mph    
Max Gust Speed 18 mph    
Visibility 9 miles    
Events      
Averages and records for this station are not official NWS values.
T = Trace of Precipitation, MM = Missing Value Source: NWS Daily Summary

Daily Weather History Graph

Daily Weather History Graph

Search for Another Location

Airport or City:

Trip Planner

Search our weather history database for the weather conditions in past years. The results will help you decide how hot, cold, wet, or windy it might be!

Date:

Astronomy

Jul. 02, 2012 Rise Set
Actual Time 5:32 AM CDT 9:01 PM CDT
Civil Twilight 4:55 AM CDT 9:38 PM CDT
Nautical Twilight 4:07 AM CDT 10:26 PM CDT
Astronomical Twilight 3:05 AM CDT 11:28 PM CDT
Moon 8:03 PM CDT (7/2) 4:21 AM CDT (7/2)
Length of Visible Light 16h 42m
Length of Day
15h 29m
Waxing Gibbous, 98% of the Moon is Illuminated
Jul 2
Waxing Gibbous
Jul 3
Full
Jul 10
Last Quarter
Jul 18
New
Jul 26
First Quarter

Hourly Weather History & Observations

Time (CDT) Temp. Heat Index Dew Point Humidity Pressure Visibility Wind Dir Wind Speed Gust Speed Precip Events Conditions
12:11 AM 75.2 °F - 71.6 °F 89% 29.88 in 10.0 mi Calm Calm - N/A   Clear
12:32 AM 75.2 °F - 71.6 °F 89% 29.88 in 10.0 mi South 4.6 mph - N/A   Clear
12:51 AM 73.4 °F - 71.6 °F 94% 29.88 in 7.0 mi Calm Calm - N/A   Clear
1:11 AM 73.4 °F - 71.6 °F 94% 29.88 in 7.0 mi Calm Calm - N/A   Clear
1:32 AM 73.4 °F - 71.6 °F 94% 29.88 in 10.0 mi Calm Calm - N/A   Clear
1:51 AM 75.2 °F - 71.6 °F 89% 29.88 in 7.0 mi South 3.5 mph - N/A   Clear
2:11 AM 75.2 °F - 71.6 °F 89% 29.88 in 7.0 mi Calm Calm - N/A   Clear
2:32 AM 73.4 °F - 71.6 °F 94% 29.88 in 7.0 mi Calm Calm - N/A   Clear
2:51 AM 73.4 °F - 71.6 °F 94% 29.87 in 7.0 mi Calm Calm - N/A   Clear
3:11 AM 73.4 °F - 71.6 °F 94% 29.87 in 7.0 mi South 4.6 mph - N/A   Clear
3:32 AM 73.4 °F - 71.6 °F 94% 29.87 in 10.0 mi South 3.5 mph - N/A   Clear
3:51 AM 73.4 °F - 71.6 °F 94% 29.87 in 10.0 mi SSW 3.5 mph - N/A   Clear
4:11 AM 73.4 °F - 71.6 °F 94% 29.86 in 10.0 mi Calm Calm - N/A   Clear
4:32 AM 73.4 °F - 71.6 °F 94% 29.86 in 10.0 mi Calm Calm - N/A   Clear
4:51 AM 71.6 °F - 69.8 °F 94% 29.86 in 7.0 mi Calm Calm - N/A   Clear
5:11 AM 71.6 °F - 69.8 °F 94% 29.86 in 5.0 mi Calm Calm - N/A   Clear
5:32 AM 71.6 °F - 69.8 °F 94% 29.87 in 5.0 mi Calm Calm - N/A   Clear
5:51 AM 69.8 °F - 69.8 °F 100% 29.87 in 5.0 mi Calm Calm - N/A   Clear
6:11 AM 71.6 °F - 69.8 °F 94% 29.87 in 4.0 mi Calm Calm - N/A   Clear
6:31 AM 71.6 °F - 69.8 °F 94% 29.87 in 4.0 mi Calm Calm - N/A   Clear
6:51 AM 73.4 °F - 71.6 °F 94% 29.87 in 4.0 mi Calm Calm - N/A   Clear
7:12 AM 73.4 °F - 71.6 °F 94% 29.88 in 5.0 mi Calm Calm - N/A   Clear
7:31 AM 75.2 °F - 71.6 °F 89% 29.88 in 5.0 mi Calm Calm - N/A   Clear
7:51 AM 78.8 °F - 73.4 °F 83% 29.88 in 7.0 mi Calm Calm - N/A   Clear
8:12 AM 80.6 °F 85.4 °F 73.4 °F 79% 29.88 in 10.0 mi SSE 4.6 mph - N/A   Clear
8:31 AM 80.6 °F 85.4 °F 73.4 °F 79% 29.87 in 10.0 mi South 6.9 mph - N/A   Clear
8:51 AM 82.4 °F 88.2 °F 73.4 °F 74% 29.87 in 7.0 mi South 5.8 mph - N/A   Clear
9:12 AM 82.4 °F 88.2 °F 73.4 °F 74% 29.87 in 10.0 mi South 5.8 mph - N/A   Clear
9:31 AM 84.2 °F 90.9 °F 73.4 °F 70% 29.87 in 10.0 mi South 8.1 mph - N/A   Clear
9:51 AM 84.2 °F 90.9 °F 73.4 °F 70% 29.86 in 10.0 mi South 8.1 mph - N/A   Clear
10:12 AM 84.2 °F 89.6 °F 71.6 °F 66% 29.86 in 10.0 mi South 5.8 mph - N/A   Clear
10:31 AM 86.0 °F 91.8 °F 71.6 °F 62% 29.86 in 10.0 mi South 9.2 mph - N/A   Clear
10:51 AM 86.0 °F 91.8 °F 71.6 °F 62% 29.86 in 10.0 mi South 10.4 mph - N/A   Clear
11:12 AM 87.8 °F 95.6 °F 73.4 °F 62% 29.87 in 10.0 mi SSW 10.4 mph - N/A   Clear
11:31 AM 87.8 °F 93.8 °F 71.6 °F 58% 29.86 in 7.0 mi South 9.2 mph - N/A   Clear
11:51 AM 87.8 °F 95.6 °F 73.4 °F 62% 29.85 in 10.0 mi South 8.1 mph - N/A   Clear
12:31 PM 89.6 °F 98.2 °F 73.4 °F 59% 29.85 in 10.0 mi South 9.2 mph 16.1 mph N/A   Clear
12:51 PM 89.6 °F 96.2 °F 71.6 °F 55% 29.84 in 10.0 mi South 9.2 mph - N/A   Clear
1:11 PM 89.6 °F 98.2 °F 73.4 °F 59% 29.84 in 7.0 mi SSE 9.2 mph - N/A   Clear
1:31 PM 91.4 °F 100.1 °F 73.4 °F 55% 29.83 in 7.0 mi South 11.5 mph - N/A   Clear
1:51 PM 91.4 °F 100.1 °F 73.4 °F 55% 29.83 in 10.0 mi South 8.1 mph - N/A   Clear
2:11 PM 91.4 °F 100.1 °F 73.4 °F 55% 29.83 in 10.0 mi South 9.2 mph - N/A   Clear
2:31 PM 91.4 °F 98.4 °F 71.6 °F 52% 29.83 in 10.0 mi SSW 10.4 mph 16.1 mph N/A   Clear
2:51 PM 91.4 °F 100.1 °F 73.4 °F 55% 29.82 in 7.0 mi South 9.2 mph - N/A   Clear
3:11 PM 91.4 °F 100.1 °F 73.4 °F 55% 29.82 in 10.0 mi South 11.5 mph 16.1 mph N/A   Clear
3:31 PM 93.2 °F 102.4 °F 73.4 °F 52% 29.82 in 10.0 mi South 11.5 mph - N/A   Clear
3:52 PM 91.4 °F 100.1 °F 73.4 °F 55% 29.82 in 10.0 mi South 12.7 mph 17.3 mph N/A   Clear
4:11 PM 93.2 °F 102.4 °F 73.4 °F 52% 29.81 in 7.0 mi South 11.5 mph - N/A   Clear
4:31 PM 91.4 °F 98.4 °F 71.6 °F 52% 29.81 in 10.0 mi SSW 11.5 mph 18.4 mph N/A   Clear
4:52 PM 91.4 °F 98.4 °F 71.6 °F 52% 29.82 in 10.0 mi SSW 8.1 mph 17.3 mph N/A   Clear
5:11 PM 91.4 °F 98.4 °F 71.6 °F 52% 29.81 in 10.0 mi SSW 10.4 mph - N/A   Clear
5:31 PM 91.4 °F 98.4 °F 71.6 °F 52% 29.81 in 10.0 mi SSW 8.1 mph 17.3 mph N/A   Clear
5:52 PM 91.4 °F 100.1 °F 73.4 °F 55% 29.80 in 10.0 mi South 9.2 mph - N/A   Clear
6:11 PM 91.4 °F 98.4 °F 71.6 °F 52% 29.80 in 10.0 mi SSW 8.1 mph - N/A   Clear
6:31 PM 89.6 °F 94.7 °F 69.8 °F 52% 29.81 in 10.0 mi SSW 5.8 mph - N/A   Clear
6:52 PM 89.6 °F 94.7 °F 69.8 °F 52% 29.81 in 10.0 mi SSW 8.1 mph - N/A   Clear
7:11 PM 89.6 °F 94.7 °F 69.8 °F 52% 29.80 in 10.0 mi South 5.8 mph - N/A   Clear
7:31 PM 87.8 °F 93.8 °F 71.6 °F 58% 29.79 in 10.0 mi South 6.9 mph - N/A   Clear
7:52 PM 86.0 °F 91.8 °F 71.6 °F 62% 29.78 in 10.0 mi South 6.9 mph - N/A   Clear
8:11 PM 84.2 °F 89.6 °F 71.6 °F 66% 29.78 in 10.0 mi South 6.9 mph - N/A   Clear
8:52 PM 82.4 °F 87.2 °F 71.6 °F 70% 29.81 in 7.0 mi SSW 5.8 mph - N/A   Clear
9:11 PM 82.4 °F 86.3 °F 69.8 °F 66% 29.81 in 10.0 mi South 6.9 mph - N/A   Clear
9:31 PM 82.4 °F 85.4 °F 68.0 °F 62% 29.81 in 10.0 mi SSW 5.8 mph - N/A   Clear
9:52 PM 82.4 °F 85.4 °F 68.0 °F 62% 29.81 in 10.0 mi SSW 4.6 mph - N/A   Clear
10:11 PM 82.4 °F 85.4 °F 68.0 °F 62% 29.82 in 10.0 mi South 4.6 mph - N/A   Clear
10:31 PM 80.6 °F 83.9 °F 69.8 °F 70% 29.83 in 10.0 mi South 6.9 mph - N/A   Clear
10:52 PM 80.6 °F 83.9 °F 69.8 °F 70% 29.83 in 10.0 mi South 5.8 mph - N/A   Clear
11:11 PM 80.6 °F 83.9 °F 69.8 °F 70% 29.83 in 10.0 mi SSW 6.9 mph - N/A   Clear
11:51 PM 80.6 °F 83.9 °F 69.8 °F 70% 29.81 in 10.0 mi South 6.9 mph - N/A   Clear